This is the latest recevied weather packets stored in our database for station/object S51UL-6. If no packets are shown the sender has not sent any weather packets the latest 10 day(s).
| Time | Temp. | Humidity | Pressure | Rain* | Wind** | Luminosity | Snow |
|---|---|---|---|---|---|---|---|
| 1788664222 | 12.78° C | 91% | 1025.4 hPa | 206.25 mm | - | - | - |
| 1788663922 | 12.78° C | 91% | 1025.3 hPa | 228.6 mm | - | - | - |
| 1788663321 | 12.78° C | 90% | 1025.4 hPa | 230.12 mm | - | - | - |
| 1788662722 | 13.33° C | 90% | 1025.4 hPa | 231.14 mm | - | - | - |
| 1788662122 | 13.33° C | 91% | 1025.2 hPa | 209.3 mm | - | - | - |
| 1788661523 | 13.33° C | 91% | 1025 hPa | 204.72 mm | - | - | - |
| 1788661223 | 13.33° C | 91% | 1025 hPa | 221.74 mm | - | - | - |
| 1788660923 | 13.33° C | 91% | 1025 hPa | 206.76 mm | - | - | - |
| 1788660623 | 13.33° C | 91% | 1025.3 hPa | 186.44 mm | - | - | - |
| 1788660322 | 13.33° C | 91% | 1025.2 hPa | 201.17 mm | - | - | - |
| 1788659424 | 13.89° C | 91% | 1025 hPa | 145.03 mm | - | - | - |
| 1788659123 | 13.89° C | 91% | 1024.9 hPa | 189.23 mm | - | - | - |
| 1788658824 | 13.89° C | 91% | 1024.8 hPa | 163.32 mm | - | - | - |
| 1788658222 | 13.89° C | 91% | 1025 hPa | 192.79 mm | - | - | - |
| 1788657922 | 13.89° C | 90% | 1025 hPa | 176.28 mm | - | - | - |
| 1788657623 | 13.89° C | 90% | 1025 hPa | 196.85 mm | - | - | - |
| 1788657323 | 13.89° C | 90% | 1025 hPa | 197.36 mm | - | - | - |
| 1788656723 | 14.44° C | 90% | 1025 hPa | 217.17 mm | - | - | - |
| 1788656423 | 14.44° C | 90% | 1025 hPa | 231.14 mm | - | - | - |
| 1788656123 | 14.44° C | 90% | 1024.9 hPa | 228.6 mm | - | - | - |
| 1788655824 | 14.44° C | 90% | 1024.9 hPa | 184.66 mm | - | - | - |
| 1788655523 | 14.44° C | 90% | 1025 hPa | 225.04 mm | - | - | - |
| 1788654924 | 14.44° C | 90% | 1024.9 hPa | 206.25 mm | - | - | - |
| 1788654623 | 14.44° C | 90% | 1024.8 hPa | 226.57 mm | - | - | - |
| 1788654323 | 14.44° C | 90% | 1024.9 hPa | 231.65 mm | - | - | - |
* Rain latest hour (hover to see other rain measurements)
** Current wind speed in m/s (hover to see current wind gust speed)